Time,TemperatureF,DewpointF,PressureIn,WindDirection,WindDirectionDegrees,WindSpeedMPH,WindSpeedGustMPH,Humidity,HourlyPrecipIn,Conditions,Clouds,dailyrainin,SoftwareType,DateUTC
2013-07-17 00:00:00,82.4,67.6,30.12,North,360,1.0,3.0,61,0.00,OVC,OVC,0.00,WeatherDisplay:10.31,2013-07-17 04:00:00,
2013-07-17 00:05:00,82.3,67.5,30.12,North,360,2.0,3.0,61,0.00,OVC,OVC,0.00,WeatherDisplay:10.31,2013-07-17 04:05:00,
2013-07-17 00:10:00,82.2,67.4,30.12,North,360,0.0,2.0,61,0.00,OVC,OVC,0.00,WeatherDisplay:10.31,2013-07-17 04:10:00,
2013-07-17 00:15:00,82.2,67.9,30.12,North,360,0.0,1.0,62,0.00,OVC,OVC,0.00,WeatherDisplay:10.31,2013-07-17 04:15:00,
2013-07-17 00:20:00,82.0,67.2,30.12,North,360,1.0,2.0,61,0.00,OVC,OVC,0.00,WeatherDisplay:10.31,2013-07-17 04:20:00,
2013-07-17 00:25:00,82.0,67.2,30.12,North,360,2.0,2.0,61,0.00,OVC,OVC,0.00,WeatherDisplay:10.31,2013-07-17 04:25:00,
2013-07-17 00:30:00,82.0,67.2,30.11,North,360,1.0,2.0,61,0.00,OVC,OVC,0.00,WeatherDisplay:10.31,2013-07-17 04:30:00,
2013-07-17 00:35:00,82.0,67.2,30.11,North,360,0.0,1.0,61,0.00,OVC,OVC,0.00,WeatherDisplay:10.31,2013-07-17 04:35:00,
2013-07-17 00:40:00,82.0,67.2,30.11,North,360,0.0,1.0,61,0.00,OVC,OVC,0.00,WeatherDisplay:10.31,2013-07-17 04:40:00,
2013-07-17 00:45:00,82.0,67.7,30.11,North,360,0.0,2.0,62,0.00,OVC,OVC,0.00,WeatherDisplay:10.31,2013-07-17 04:45:00,
2013-07-17 00:50:00,82.0,67.7,30.11,North,360,1.0,2.0,62,0.00,OVC,OVC,0.00,WeatherDisplay:10.31,2013-07-17 04:50:00,
2013-07-17 01:00:00,81.8,68.0,30.11,North,360,1.0,2.0,63,0.00,OVC,OVC,0.00,WeatherDisplay:10.31,2013-07-17 05:00:00,
2013-07-17 01:05:00,81.8,68.0,30.11,North,360,1.0,2.0,63,0.00,OVC,OVC,0.00,WeatherDisplay:10.31,2013-07-17 05:05:00,
2013-07-17 01:10:00,81.6,67.8,30.11,North,360,1.0,2.0,63,0.00,OVC,OVC,0.00,WeatherDisplay:10.31,2013-07-17 05:10:00,
2013-07-17 01:20:00,81.6,68.2,30.11,North,360,0.0,1.0,64,0.00,OVC,OVC,0.00,WeatherDisplay:10.31,2013-07-17 05:20:00,
2013-07-17 01:30:00,81.2,67.9,30.10,North,360,0.0,0.0,64,0.00,OVC,OVC,0.00,WeatherDisplay:10.31,2013-07-17 05:30:00,
2013-07-17 01:40:00,81.1,68.2,30.10,North,360,0.0,0.0,65,0.00,OVC,OVC,0.00,WeatherDisplay:10.31,2013-07-17 05:40:00,
2013-07-17 01:50:00,80.9,68.0,30.10,North,360,0.0,0.0,65,0.00,OVC,OVC,0.00,WeatherDisplay:10.31,2013-07-17 05:50:00,
2013-07-17 02:00:00,80.7,68.3,30.09,North,360,0.0,2.0,66,0.00,OVC,OVC,0.00,WeatherDisplay:10.31,2013-07-17 06:00:00,
2013-07-17 02:05:00,80.5,68.1,30.09,North,360,1.0,2.0,66,0.00,OVC,OVC,0.00,WeatherDisplay:10.31,2013-07-17 06:05:00,
2013-07-17 02:10:00,80.3,67.9,30.09,North,360,1.0,2.0,66,0.00,OVC,OVC,0.00,WeatherDisplay:10.31,2013-07-17 06:10:00,
2013-07-17 02:20:00,80.1,68.2,30.09,North,360,0.0,2.0,67,0.00,OVC,OVC,0.00,WeatherDisplay:10.31,2013-07-17 06:20:00,
2013-07-17 02:30:00,80.1,68.6,30.09,North,360,0.0,0.0,68,0.00,OVC,OVC,0.00,WeatherDisplay:10.31,2013-07-17 06:30:00,
2013-07-17 02:40:00,79.9,68.4,30.09,North,360,0.0,2.0,68,0.00,OVC,OVC,0.00,WeatherDisplay:10.31,2013-07-17 06:40:00,
2013-07-17 02:50:00,79.8,68.7,30.09,North,360,0.0,1.0,69,0.00,OVC,OVC,0.00,WeatherDisplay:10.31,2013-07-17 06:50:00,
2013-07-17 03:00:00,79.6,68.1,30.09,North,360,0.0,0.0,68,0.00,OVC,OVC,0.00,WeatherDisplay:10.31,2013-07-17 07:00:00,
2013-07-17 03:05:00,79.8,68.7,30.09,North,360,0.0,0.0,69,0.00,OVC,OVC,0.00,WeatherDisplay:10.31,2013-07-17 07:05:00,
2013-07-17 03:10:00,79.6,68.5,30.09,North,360,0.0,1.0,69,0.00,OVC,OVC,0.00,WeatherDisplay:10.31,2013-07-17 07:10:00,
2013-07-17 03:20:00,79.4,68.8,30.09,North,360,0.0,1.0,70,0.00,OVC,OVC,0.00,WeatherDisplay:10.31,2013-07-17 07:20:00,
2013-07-17 03:25:00,79.4,68.8,30.09,North,360,0.0,1.0,70,0.00,OVC,OVC,0.00,WeatherDisplay:10.31,2013-07-17 07:25:00,
2013-07-17 03:30:00,79.4,68.7,30.09,North,360,0.0,2.0,70,0.00,OVC,OVC,0.00,WeatherDisplay:10.31,2013-07-17 07:30:00,
2013-07-17 03:40:00,79.2,69.0,30.10,North,360,0.0,1.0,71,0.00,OVC,OVC,0.00,WeatherDisplay:10.31,2013-07-17 07:40:00,
2013-07-17 03:50:00,79.0,69.2,30.10,North,360,0.0,1.0,72,0.00,OVC,OVC,0.00,WeatherDisplay:10.31,2013-07-17 07:50:00,
2013-07-17 04:00:00,78.8,69.0,30.11,North,360,0.0,1.0,72,0.00,OVC,OVC,0.00,WeatherDisplay:10.31,2013-07-17 08:00:00,
2013-07-17 04:05:00,78.6,69.2,30.11,North,360,0.0,3.0,73,0.00,OVC,OVC,0.00,WeatherDisplay:10.31,2013-07-17 08:05:00,
2013-07-17 04:10:00,78.6,69.2,30.11,North,360,0.0,1.0,73,0.00,OVC,OVC,0.00,WeatherDisplay:10.31,2013-07-17 08:10:00,
2013-07-17 04:20:00,78.8,69.4,30.10,North,360,0.0,2.0,73,0.00,OVC,OVC,0.00,WeatherDisplay:10.31,2013-07-17 08:20:00,
2013-07-17 04:30:00,78.8,69.0,30.11,North,360,0.0,3.0,72,0.00,OVC,OVC,0.00,WeatherDisplay:10.31,2013-07-17 08:30:00,
2013-07-17 04:40:00,79.0,68.4,30.11,WNW,284,1.0,3.0,70,0.00,OVC,OVC,0.00,WeatherDisplay:10.31,2013-07-17 08:40:00,
2013-07-17 04:50:00,79.4,68.3,30.11,West,270,0.0,1.0,69,0.00,OVC,OVC,0.00,WeatherDisplay:10.31,2013-07-17 08:50:00,
2013-07-17 05:00:00,79.6,68.1,30.11,West,270,0.0,1.0,68,0.00,OVC,OVC,0.00,WeatherDisplay:10.31,2013-07-17 09:00:00,
2013-07-17 05:10:00,79.9,68.4,30.11,West,270,0.0,0.0,68,0.00,OVC,OVC,0.00,WeatherDisplay:10.31,2013-07-17 09:10:00,
2013-07-17 05:15:00,79.9,68.0,30.11,West,270,0.0,0.0,67,0.00,OVC,OVC,0.00,WeatherDisplay:10.31,2013-07-17 09:15:00,
2013-07-17 05:25:00,80.1,68.2,30.11,West,270,0.0,1.0,67,0.00,OVC,OVC,0.00,WeatherDisplay:10.31,2013-07-17 09:25:00,
2013-07-17 05:30:00,80.1,68.2,30.11,West,270,0.0,0.0,67,0.00,OVC,OVC,0.00,WeatherDisplay:10.31,2013-07-17 09:30:00,
2013-07-17 05:40:00,80.1,67.7,30.12,West,270,0.0,0.0,66,0.00,OVC,OVC,0.00,WeatherDisplay:10.31,2013-07-17 09:40:00,
2013-07-17 05:50:00,80.1,67.7,30.12,West,270,0.0,2.0,66,0.00,OVC,OVC,0.00,WeatherDisplay:10.31,2013-07-17 09:50:00,
2013-07-17 06:00:00,80.1,68.2,30.12,West,270,0.0,1.0,67,0.00,SCT,SCT,0.00,WeatherDisplay:10.31,2013-07-17 10:00:00,
2013-07-17 06:05:00,80.1,68.2,30.13,West,270,0.0,1.0,67,0.00,OVC,OVC,0.00,WeatherDisplay:10.31,2013-07-17 10:05:00,
2013-07-17 06:10:00,79.9,68.0,30.13,West,270,0.0,1.0,67,0.00,BKN,BKN,0.00,WeatherDisplay:10.31,2013-07-17 10:10:00,
2013-07-17 06:20:00,79.9,68.4,30.13,West,270,0.0,1.0,68,0.00,OVC,OVC,0.00,WeatherDisplay:10.31,2013-07-17 10:20:00,
2013-07-17 06:30:00,79.8,69.1,30.13,West,270,0.0,2.0,70,0.00,OVC,OVC,0.00,WeatherDisplay:10.31,2013-07-17 10:30:00,
2013-07-17 06:40:00,79.6,69.0,30.13,West,270,0.0,1.0,70,0.00,OVC,OVC,0.00,WeatherDisplay:10.31,2013-07-17 10:40:00,
2013-07-17 06:50:00,79.6,68.9,30.13,West,270,0.0,0.0,70,0.00,BKN,BKN,0.00,WeatherDisplay:10.31,2013-07-17 10:50:00,
2013-07-17 07:00:00,79.5,69.2,30.13,West,270,0.0,3.0,71,0.00,OVC,OVC,0.00,WeatherDisplay:10.31,2013-07-17 11:00:00,
2013-07-17 07:05:00,79.6,69.4,30.13,West,270,1.0,3.0,71,0.00,OVC,OVC,0.00,WeatherDisplay:10.31,2013-07-17 11:05:00,
2013-07-17 07:10:00,79.6,69.4,30.14,West,270,1.0,2.0,71,0.00,OVC,OVC,0.00,WeatherDisplay:10.31,2013-07-17 11:10:00,
2013-07-17 07:20:00,79.6,69.4,30.14,WNW,297,2.0,5.0,71,0.00,OVC,OVC,0.00,WeatherDisplay:10.31,2013-07-17 11:20:00,
2013-07-17 07:30:00,79.8,69.1,30.14,NNW,339,1.0,6.0,70,0.00,BKN,BKN,0.00,WeatherDisplay:10.31,2013-07-17 11:30:00,
2013-07-17 07:40:00,80.1,69.4,30.13,NNW,329,1.0,5.0,70,0.00,FEW,FEW,0.00,WeatherDisplay:10.31,2013-07-17 11:40:00,
2013-07-17 07:50:00,80.7,70.0,30.13,NW,306,3.0,7.0,70,0.00,FEW,FEW,0.00,WeatherDisplay:10.31,2013-07-17 11:50:00,
2013-07-17 08:00:00,81.5,70.3,30.14,NNW,331,0.0,7.0,69,0.00,FEW,FEW,0.00,WeatherDisplay:10.31,2013-07-17 12:00:00,
2013-07-17 08:05:00,82.0,70.4,30.13,NNW,340,1.0,6.0,68,0.00,FEW,FEW,0.00,WeatherDisplay:10.31,2013-07-17 12:05:00,
2013-07-17 08:10:00,82.4,70.3,30.13,NNW,337,0.0,5.0,67,0.00,FEW,FEW,0.00,WeatherDisplay:10.31,2013-07-17 12:10:00,
2013-07-17 08:20:00,83.2,70.7,30.13,WNW,301,2.0,3.0,66,0.00,FEW,FEW,0.00,WeatherDisplay:10.31,2013-07-17 12:20:00,
2013-07-17 08:30:00,83.7,70.3,30.13,NW,317,1.0,7.0,64,0.00,FEW,FEW,0.00,WeatherDisplay:10.31,2013-07-17 12:30:00,
2013-07-17 08:40:00,84.1,70.6,30.14,WNW,303,1.0,8.0,64,0.00,FEW,FEW,0.00,WeatherDisplay:10.31,2013-07-17 12:40:00,
2013-07-17 08:50:00,84.9,70.9,30.14,WNW,303,1.0,3.0,63,0.00,FEW,FEW,0.00,WeatherDisplay:10.31,2013-07-17 12:50:00,
2013-07-17 09:00:00,85.7,70.7,30.14,West,275,2.0,5.0,61,0.00,CLR,CLR,0.00,WeatherDisplay:10.31,2013-07-17 13:00:00,
2013-07-17 09:05:00,86.0,71.0,30.14,West,270,2.0,3.0,61,0.00,BKN,BKN,0.00,WeatherDisplay:10.31,2013-07-17 13:05:00,
2013-07-17 09:10:00,86.3,71.3,30.14,WNW,286,0.0,6.0,61,0.00,BKN,BKN,0.00,WeatherDisplay:10.31,2013-07-17 13:10:00,
2013-07-17 09:20:00,86.5,71.5,30.14,NW,315,2.0,3.0,61,0.00,OVC,OVC,0.00,WeatherDisplay:10.31,2013-07-17 13:20:00,
2013-07-17 09:25:00,86.5,71.5,30.14,NW,315,1.0,5.0,61,0.00,OVC,OVC,0.00,WeatherDisplay:10.31,2013-07-17 13:25:00,
2013-07-17 09:30:00,86.5,71.5,30.14,NW,315,2.0,3.0,61,0.00,FEW,FEW,0.00,WeatherDisplay:10.31,2013-07-17 13:30:00,
2013-07-17 09:40:00,87.2,71.6,30.14,NW,324,1.0,5.0,60,0.00,CLR,CLR,0.00,WeatherDisplay:10.31,2013-07-17 13:40:00,
2013-07-17 09:50:00,87.8,71.7,30.14,NW,321,2.0,5.0,59,0.00,OVC,OVC,0.00,WeatherDisplay:10.31,2013-07-17 13:50:00,
2013-07-17 10:00:00,88.0,71.4,30.14,North,360,1.0,6.0,58,0.00,OVC,OVC,0.00,WeatherDisplay:10.31,2013-07-17 14:00:00,
2013-07-17 10:05:00,88.0,71.4,30.14,North,360,1.0,3.0,58,0.00,OVC,OVC,0.00,WeatherDisplay:10.31,2013-07-17 14:05:00,
2013-07-17 10:10:00,88.0,71.9,30.14,North,360,1.0,3.0,59,0.00,OVC,OVC,0.00,WeatherDisplay:10.31,2013-07-17 14:10:00,
2013-07-17 10:20:00,88.4,71.2,30.14,NW,318,2.0,5.0,57,0.00,FEW,FEW,0.00,WeatherDisplay:10.31,2013-07-17 14:20:00,
2013-07-17 10:30:00,89.3,71.0,30.14,NNW,335,2.0,5.0,55,0.00,FEW,FEW,0.00,WeatherDisplay:10.31,2013-07-17 14:30:00,
2013-07-17 10:35:00,89.9,69.9,30.14,NW,324,3.0,5.0,52,0.00,FEW,FEW,0.00,WeatherDisplay:10.31,2013-07-17 14:35:00,
2013-07-17 10:40:00,90.5,70.5,30.14,NW,324,0.0,6.0,52,0.00,SCT,SCT,0.00,WeatherDisplay:10.31,2013-07-17 14:40:00,
2013-07-17 10:50:00,92.1,70.8,30.14,NNW,340,0.0,5.0,50,0.00,FEW,FEW,0.00,WeatherDisplay:10.31,2013-07-17 14:50:00,
2013-07-17 11:00:00,92.7,69.5,30.14,NW,324,1.0,7.0,47,0.00,FEW,FEW,0.00,WeatherDisplay:10.31,2013-07-17 15:00:00,
2013-07-17 11:05:00,93.2,70.0,30.14,WNW,286,0.0,3.0,47,0.00,FEW,FEW,0.00,WeatherDisplay:10.31,2013-07-17 15:05:00,
2013-07-17 11:10:00,93.5,68.9,30.13,North,354,0.0,6.0,45,0.00,FEW,FEW,0.00,WeatherDisplay:10.31,2013-07-17 15:10:00,
2013-07-17 11:20:00,94.5,68.5,30.13,NNE,23,2.0,5.0,43,0.00,OVC,OVC,0.00,WeatherDisplay:10.31,2013-07-17 15:20:00,
2013-07-17 11:25:00,94.5,67.9,30.13,North,11,1.0,6.0,42,0.00,OVC,OVC,0.00,WeatherDisplay:10.31,2013-07-17 15:25:00,
2013-07-17 11:30:00,94.9,67.5,30.13,North,0,1.0,2.0,41,0.00,FEW,FEW,0.00,WeatherDisplay:10.31,2013-07-17 15:30:00,
2013-07-17 11:40:00,96.1,69.3,30.13,NNE,15,1.0,5.0,42,0.00,CLR,CLR,0.00,WeatherDisplay:10.31,2013-07-17 15:40:00,
2013-07-17 11:50:00,97.1,68.8,30.13,NNW,333,1.0,3.0,40,0.00,BKN,BKN,0.00,WeatherDisplay:10.31,2013-07-17 15:50:00,
2013-07-17 12:00:00,97.5,67.6,30.13,NNW,348,6.0,9.0,38,0.00,FEW,FEW,0.00,WeatherDisplay:10.31,2013-07-17 16:00:00,
2013-07-17 12:10:00,97.8,67.1,30.13,North,356,3.0,8.0,37,0.00,OVC,OVC,0.00,WeatherDisplay:10.31,2013-07-17 16:10:00,
2013-07-17 12:20:00,98.0,64.9,30.13,North,357,2.0,6.0,34,0.00,BKN,BKN,0.00,WeatherDisplay:10.31,2013-07-17 16:20:00,
2013-07-17 12:30:00,98.2,63.3,30.13,North,360,2.0,5.0,32,0.00,SCT,SCT,0.00,WeatherDisplay:10.31,2013-07-17 16:30:00,
2013-07-17 12:40:00,99.0,64.0,30.12,NNE,12,2.0,5.0,32,0.00,FEW,FEW,0.00,WeatherDisplay:10.31,2013-07-17 16:40:00,
2013-07-17 12:50:00,99.4,65.2,30.12,NE,56,1.0,6.0,33,0.00,FEW,FEW,0.00,WeatherDisplay:10.31,2013-07-17 16:50:00,
2013-07-17 13:00:00,100.3,65.1,30.12,NNE,12,1.0,3.0,32,0.00,FEW,FEW,0.00,WeatherDisplay:10.31,2013-07-17 17:00:00,
2013-07-17 13:05:00,100.4,64.3,30.11,NNW,339,1.0,3.0,31,0.00,OVC,OVC,0.00,WeatherDisplay:10.31,2013-07-17 17:05:00,
2013-07-17 13:10:00,100.2,64.1,30.11,North,359,0.0,6.0,31,0.00,FEW,FEW,0.00,WeatherDisplay:10.31,2013-07-17 17:10:00,
2013-07-17 13:20:00,100.7,64.5,30.11,East,93,1.0,5.0,31,0.00,OVC,OVC,0.00,WeatherDisplay:10.31,2013-07-17 17:20:00,
2013-07-17 13:30:00,100.4,65.2,30.11,ESE,102,1.0,3.0,32,0.00,FEW,FEW,0.00,WeatherDisplay:10.31,2013-07-17 17:30:00,
2013-07-17 13:40:00,100.7,66.3,30.11,WNW,303,0.0,5.0,33,0.00,OVC,OVC,0.00,WeatherDisplay:10.31,2013-07-17 17:40:00,
2013-07-17 13:50:00,100.4,64.3,30.10,North,7,1.0,6.0,31,0.00,OVC,OVC,0.00,WeatherDisplay:10.31,2013-07-17 17:50:00,
2013-07-17 14:00:00,100.7,66.3,30.10,NNE,27,3.0,5.0,33,0.00,FEW,FEW,0.00,WeatherDisplay:10.31,2013-07-17 18:00:00,
2013-07-17 14:05:00,101.2,65.0,30.10,NNE,30,0.0,5.0,31,0.00,FEW,FEW,0.00,WeatherDisplay:10.31,2013-07-17 18:05:00,
2013-07-17 14:10:00,101.7,65.4,30.09,NNE,29,0.0,3.0,31,0.00,FEW,FEW,0.00,WeatherDisplay:10.31,2013-07-17 18:10:00,
2013-07-17 14:20:00,102.0,64.7,30.09,North,7,0.0,5.0,30,0.00,OVC,OVC,0.00,WeatherDisplay:10.31,2013-07-17 18:20:00,
2013-07-17 14:30:00,102.3,62.0,30.09,North,11,2.0,5.0,27,0.00,OVC,OVC,0.00,WeatherDisplay:10.31,2013-07-17 18:30:00,
2013-07-17 14:40:00,102.0,64.7,30.08,North,352,1.0,6.0,30,0.00,FEW,FEW,0.00,WeatherDisplay:10.31,2013-07-17 18:40:00,
2013-07-17 14:50:00,102.0,64.7,30.08,North,360,2.0,6.0,30,0.00,OVC,OVC,0.00,WeatherDisplay:10.31,2013-07-17 18:50:00,
2013-07-17 15:00:00,102.0,65.7,30.08,North,0,1.0,3.0,31,0.00,FEW,FEW,0.00,WeatherDisplay:10.31,2013-07-17 19:00:00,
2013-07-17 15:05:00,102.0,65.7,30.08,North,0,1.0,3.0,31,0.00,SCT,SCT,0.00,WeatherDisplay:10.31,2013-07-17 19:05:00,
2013-07-17 15:10:00,102.0,64.7,30.08,North,0,0.0,3.0,30,0.00,OVC,OVC,0.00,WeatherDisplay:10.31,2013-07-17 19:10:00,
2013-07-17 15:20:00,101.4,66.1,30.07,ENE,63,1.0,2.0,32,0.00,OVC,OVC,0.00,WeatherDisplay:10.31,2013-07-17 19:20:00,
2013-07-17 15:30:00,101.0,64.8,30.07,ENE,68,1.0,5.0,31,0.00,OVC,OVC,0.00,WeatherDisplay:10.31,2013-07-17 19:30:00,
2013-07-17 15:40:00,100.9,62.8,30.07,NW,317,2.0,3.0,29,0.00,OVC,OVC,0.00,WeatherDisplay:10.31,2013-07-17 19:40:00,
2013-07-17 15:50:00,100.4,64.3,30.06,WNW,303,1.0,3.0,31,0.00,FEW,FEW,0.00,WeatherDisplay:10.31,2013-07-17 19:50:00,
2013-07-17 16:00:00,100.4,63.3,30.06,ENE,60,1.0,3.0,30,0.00,OVC,OVC,0.00,WeatherDisplay:10.31,2013-07-17 20:00:00,
2013-07-17 16:05:00,100.7,64.5,30.06,ENE,60,1.0,5.0,31,0.00,OVC,OVC,0.00,WeatherDisplay:10.31,2013-07-17 20:05:00,
2013-07-17 16:10:00,100.4,64.3,30.06,NNE,30,1.0,5.0,31,0.00,OVC,OVC,0.00,WeatherDisplay:10.31,2013-07-17 20:10:00,
2013-07-17 16:20:00,100.4,63.3,30.06,North,360,0.0,1.0,30,0.00,CLR,CLR,0.00,WeatherDisplay:10.31,2013-07-17 20:20:00,
2013-07-17 16:30:00,100.9,64.7,30.05,North,360,2.0,3.0,31,0.00,FEW,FEW,0.00,WeatherDisplay:10.31,2013-07-17 20:30:00,
2013-07-17 16:40:00,101.0,63.9,30.05,NNE,19,1.0,3.0,30,0.00,FEW,FEW,0.00,WeatherDisplay:10.31,2013-07-17 20:40:00,
2013-07-17 16:50:00,100.4,69.4,30.05,East,89,1.0,3.0,37,0.00,CLR,CLR,0.00,WeatherDisplay:10.31,2013-07-17 20:50:00,
2013-07-17 17:00:00,100.7,68.9,30.05,East,96,2.0,3.0,36,0.00,FEW,FEW,0.00,WeatherDisplay:10.31,2013-07-17 21:00:00,
2013-07-17 17:05:00,100.7,68.9,30.05,East,90,1.0,3.0,36,0.00,OVC,OVC,0.00,WeatherDisplay:10.31,2013-07-17 21:05:00,
2013-07-17 17:10:00,100.2,67.6,30.05,East,90,1.0,3.0,35,0.00,OVC,OVC,0.00,WeatherDisplay:10.31,2013-07-17 21:10:00,
2013-07-17 17:20:00,99.0,69.0,30.05,East,97,2.0,5.0,38,0.00,BKN,BKN,0.00,WeatherDisplay:10.31,2013-07-17 21:20:00,
2013-07-17 17:30:00,97.4,68.3,30.04,ESE,113,1.0,3.0,39,0.00,OVC,OVC,0.00,WeatherDisplay:10.31,2013-07-17 21:30:00,
2013-07-17 17:40:00,96.1,68.6,30.04,ESE,113,1.0,3.0,41,0.00,BKN,BKN,0.00,WeatherDisplay:10.31,2013-07-17 21:40:00,
2013-07-17 17:50:00,95.4,68.7,30.04,ESE,113,2.0,3.0,42,0.00,FEW,FEW,0.00,WeatherDisplay:10.31,2013-07-17 21:50:00,
2013-07-17 18:00:00,95.4,69.4,30.04,ESE,113,1.0,3.0,43,0.00,BKN,BKN,0.00,WeatherDisplay:10.31,2013-07-17 22:00:00,
2013-07-17 18:10:00,94.7,70.7,30.04,ESE,113,1.0,3.0,46,0.00,FEW,FEW,0.00,WeatherDisplay:10.31,2013-07-17 22:10:00,
2013-07-17 18:20:00,94.5,69.2,30.04,ESE,113,2.0,3.0,44,0.00,CLR,CLR,0.00,WeatherDisplay:10.31,2013-07-17 22:20:00,
2013-07-17 18:30:00,94.3,71.0,30.03,ESE,113,2.0,5.0,47,0.00,CLR,CLR,0.00,WeatherDisplay:10.31,2013-07-17 22:30:00,
2013-07-17 18:40:00,93.6,70.3,30.03,ESE,113,1.0,5.0,47,0.00,FEW,FEW,0.00,WeatherDisplay:10.31,2013-07-17 22:40:00,
2013-07-17 18:50:00,93.3,70.7,30.03,ESE,113,1.0,6.0,48,0.00,FEW,FEW,0.00,WeatherDisplay:10.31,2013-07-17 22:50:00,
2013-07-17 19:00:00,92.7,70.1,30.03,ESE,113,2.0,6.0,48,0.00,FEW,FEW,0.00,WeatherDisplay:10.31,2013-07-17 23:00:00,
2013-07-17 19:10:00,91.9,69.4,30.03,ESE,113,5.0,7.0,48,0.00,FEW,FEW,0.00,WeatherDisplay:10.31,2013-07-17 23:10:00,
2013-07-17 19:15:00,91.5,69.6,30.02,ESE,113,2.0,5.0,49,0.00,FEW,FEW,0.00,WeatherDisplay:10.31,2013-07-17 23:15:00,
2013-07-17 19:20:00,91.2,70.0,30.02,ESE,118,2.0,6.0,50,0.00,FEW,FEW,0.00,WeatherDisplay:10.31,2013-07-17 23:20:00,
2013-07-17 19:30:00,91.0,69.8,30.02,SE,135,2.0,5.0,50,0.00,SCT,SCT,0.00,WeatherDisplay:10.31,2013-07-17 23:30:00,
2013-07-17 19:40:00,90.3,69.1,30.03,SE,141,5.0,6.0,50,0.00,SCT,SCT,0.00,WeatherDisplay:10.31,2013-07-17 23:40:00,
2013-07-17 19:50:00,89.9,69.3,30.03,SE,131,1.0,6.0,51,0.00,SCT,SCT,0.00,WeatherDisplay:10.31,2013-07-17 23:50:00,
2013-07-17 20:00:00,89.3,68.8,30.03,SE,129,2.0,7.0,51,0.00,SCT,SCT,0.00,WeatherDisplay:10.31,2013-07-18 00:00:00,
2013-07-17 20:10:00,89.0,69.6,30.03,SE,132,2.0,5.0,53,0.00,BKN,BKN,0.00,WeatherDisplay:10.31,2013-07-18 00:10:00,
2013-07-17 20:20:00,88.6,69.8,30.03,ESE,120,2.0,5.0,54,0.00,OVC,OVC,0.00,WeatherDisplay:10.31,2013-07-18 00:20:00,
2013-07-17 20:30:00,88.2,70.0,30.03,SE,135,2.0,3.0,55,0.00,OVC,OVC,0.00,WeatherDisplay:10.31,2013-07-18 00:30:00,
2013-07-17 20:40:00,88.0,70.9,30.03,SE,135,2.0,3.0,57,0.00,OVC,OVC,0.00,WeatherDisplay:10.31,2013-07-18 00:40:00,
2013-07-17 20:50:00,87.6,71.0,30.04,SSE,149,2.0,3.0,58,0.00,OVC,OVC,0.00,WeatherDisplay:10.31,2013-07-18 00:50:00,
2013-07-17 21:00:00,87.0,70.9,30.04,SSE,158,2.0,5.0,59,0.00,OVC,OVC,0.00,WeatherDisplay:10.31,2013-07-18 01:00:00,
2013-07-17 21:05:00,86.7,70.7,30.04,SSE,157,2.0,3.0,59,0.00,OVC,OVC,0.00,WeatherDisplay:10.31,2013-07-18 01:05:00,
2013-07-17 21:10:00,86.5,71.0,30.04,SSE,157,0.0,3.0,60,0.00,OVC,OVC,0.00,WeatherDisplay:10.31,2013-07-18 01:10:00,
2013-07-17 21:20:00,86.1,70.6,30.04,SSE,158,1.0,3.0,60,0.00,OVC,OVC,0.00,WeatherDisplay:10.31,2013-07-18 01:20:00,
2013-07-17 21:30:00,85.9,70.9,30.05,SSE,157,2.0,3.0,61,0.00,OVC,OVC,0.00,WeatherDisplay:10.31,2013-07-18 01:30:00,
2013-07-17 21:40:00,85.7,70.7,30.04,SSE,158,3.0,3.0,61,0.00,OVC,OVC,0.00,WeatherDisplay:10.31,2013-07-18 01:40:00,
2013-07-17 21:50:00,85.5,70.5,30.04,SSE,158,2.0,3.0,61,0.00,OVC,OVC,0.00,WeatherDisplay:10.31,2013-07-18 01:50:00,
2013-07-17 22:00:00,85.5,71.0,30.05,SSE,158,2.0,3.0,62,0.00,OVC,OVC,0.00,WeatherDisplay:10.31,2013-07-18 02:00:00,
2013-07-17 22:05:00,85.3,70.8,30.05,SSE,158,2.0,3.0,62,0.00,OVC,OVC,0.00,WeatherDisplay:10.31,2013-07-18 02:05:00,
2013-07-17 22:10:00,85.3,70.8,30.05,SSE,158,2.0,3.0,62,0.00,OVC,OVC,0.00,WeatherDisplay:10.31,2013-07-18 02:10:00,
2013-07-17 22:20:00,85.0,71.0,30.05,SSE,158,0.0,5.0,63,0.00,OVC,OVC,0.00,WeatherDisplay:10.31,2013-07-18 02:20:00,
2013-07-17 22:30:00,84.7,71.2,30.05,SSE,158,3.0,5.0,64,0.00,OVC,OVC,0.00,WeatherDisplay:10.31,2013-07-18 02:30:00,
2013-07-17 22:40:00,84.5,71.0,30.05,SSE,158,2.0,3.0,64,0.00,OVC,OVC,0.00,WeatherDisplay:10.31,2013-07-18 02:40:00,
2013-07-17 22:50:00,84.3,71.2,30.05,SSE,158,2.0,3.0,65,0.00,OVC,OVC,0.00,WeatherDisplay:10.31,2013-07-18 02:50:00,
2013-07-17 23:00:00,84.1,71.1,30.05,SSE,158,2.0,3.0,65,0.00,OVC,OVC,0.00,WeatherDisplay:10.31,2013-07-18 03:00:00,
2013-07-17 23:05:00,84.1,71.1,30.05,SSE,158,1.0,5.0,65,0.00,OVC,OVC,0.00,WeatherDisplay:10.31,2013-07-18 03:05:00,
2013-07-17 23:10:00,84.1,71.1,30.05,SSE,158,2.0,5.0,65,0.00,OVC,OVC,0.00,WeatherDisplay:10.31,2013-07-18 03:10:00,
2013-07-17 23:15:00,84.0,71.0,30.05,SSE,158,1.0,3.0,65,0.00,OVC,OVC,0.00,WeatherDisplay:10.31,2013-07-18 03:15:00,
2013-07-17 23:20:00,84.0,71.4,30.05,SSE,158,2.0,3.0,66,0.00,OVC,OVC,0.00,WeatherDisplay:10.31,2013-07-18 03:20:00,
2013-07-17 23:30:00,83.8,71.2,30.05,SSE,158,1.0,3.0,66,0.00,OVC,OVC,0.00,WeatherDisplay:10.31,2013-07-18 03:30:00,
2013-07-17 23:40:00,83.6,71.5,30.05,SSE,157,2.0,3.0,67,0.00,OVC,OVC,0.00,WeatherDisplay:10.31,2013-07-18 03:40:00,
2013-07-17 23:50:00,83.4,71.3,30.05,SSE,158,3.0,5.0,67,0.00,OVC,OVC,0.00,WeatherDisplay:10.31,2013-07-18 03:50:00,